timestamp,surface_pressure_avg,surface_temp_avg,battery_voltage,lat,long
2020-06-16 00:09:01+00:00,225.6398,8.63,13.05,47.84626,-54.09684
2020-06-16 00:19:01+00:00,221.1714,8.68,12.81,47.84626,-54.09684
2020-06-16 00:29:01+00:00,218.8664,8.7,12.81,47.84626,-54.09684
2020-06-16 00:39:01+00:00,219.9448,8.7,12.81,47.84626,-54.09684
2020-06-16 00:49:01+00:00,218.5464,8.7,12.81,47.84626,-54.09684
2020-06-16 00:59:01+00:00,213.5898,8.7,12.81,47.84626,-54.09684
2020-06-16 01:09:01+00:00,211.3497,8.7,12.81,47.84626,-54.09684
2020-06-16 01:19:01+00:00,213.0681,8.7,12.73,47.84626,-54.09684
2020-06-16 01:29:01+00:00,211.6581,8.71,12.73,47.84626,-54.09684
2020-06-16 01:39:01+00:00,209.2597,8.72,12.73,47.84626,-54.09684
2020-06-16 01:49:01+00:00,208.2547,8.7,12.73,47.84626,-54.09684
2020-06-16 01:59:01+00:00,206.2581,8.77,12.73,47.84626,-54.09684
2020-06-16 02:09:01+00:00,204.1464,8.85,12.73,47.84626,-54.09684
2020-06-16 02:19:01+00:00,204.0197,8.9,12.73,47.84626,-54.09684
2020-06-16 02:29:01+00:00,207.0731,8.9,12.73,47.84626,-54.09684
2020-06-16 02:39:01+00:00,210.2397,8.9,12.73,47.84626,-54.09684
2020-06-16 02:49:01+00:00,208.5648,8.8,12.73,47.84626,-54.09684
2020-06-16 02:59:01+00:00,208.2815,8.8,12.73,47.84626,-54.09684
2020-06-16 03:09:01+00:00,210.7598,8.89,12.73,47.84626,-54.09684
2020-06-16 03:19:01+00:00,212.7114,8.8,12.73,47.84626,-54.09684
2020-06-16 03:29:01+00:00,212.5747,8.8,12.73,47.84626,-54.09684
2020-06-16 03:39:01+00:00,211.7031,8.8,12.73,47.84626,-54.09684
2020-06-16 03:49:01+00:00,213.9915,8.7,12.73,47.84626,-54.09684
2020-06-16 03:59:01+00:00,218.0964,8.6,12.73,47.84626,-54.09684
2020-06-16 04:09:01+00:00,223.5297,8.59,12.73,47.84626,-54.09684
2020-06-16 04:19:01+00:00,227.0064,8.6,12.73,47.84626,-54.09684
2020-06-16 04:29:01+00:00,231.7431,8.6,12.73,47.84626,-54.09684
2020-06-16 04:39:01+00:00,235.9731,8.58,12.73,47.84626,-54.09684
2020-06-16 04:49:01+00:00,241.7148,8.56,12.73,47.84626,-54.09684
2020-06-16 04:59:01+00:00,247.4281,8.5,12.73,47.84626,-54.09684
2020-06-16 05:09:01+00:00,252.0398,8.5,12.73,47.84626,-54.09684
2020-06-16 05:19:01+00:00,252.7464,8.5,12.65,47.84626,-54.09684
2020-06-16 05:29:01+00:00,257.8731,8.4,12.65,47.84626,-54.09684
2020-06-16 05:39:01+00:00,262.9598,8.4,12.65,47.84626,-54.09684
2020-06-16 05:49:01+00:00,267.9814,8.4,12.65,47.84626,-54.09684
2020-06-16 05:59:01+00:00,272.3897,8.34,12.65,47.84626,-54.09684
2020-06-16 06:09:01+00:00,278.0797,8.3,12.65,47.84626,-54.09684
2020-06-16 06:19:01+00:00,281.3547,8.31,12.65,47.84626,-54.09684
2020-06-16 06:29:01+00:00,285.0563,8.37,12.65,47.84626,-54.09684
2020-06-16 06:39:01+00:00,289.3247,8.35,12.65,47.84626,-54.09684
2020-06-16 06:49:01+00:00,292.8947,8.3,12.65,47.84626,-54.09684
2020-06-16 06:59:01+00:00,293.7062,8.3,12.65,47.84626,-54.09684
2020-06-16 07:09:01+00:00,294.1829,8.3,12.65,47.84626,-54.09684
2020-06-16 07:19:01+00:00,296.3963,8.3,12.65,47.84626,-54.09684
2020-06-16 07:29:01+00:00,301.7347,8.3,12.65,47.84626,-54.09684
2020-06-16 07:39:01+00:00,305.1681,8.3,12.65,47.84626,-54.09684
2020-06-16 07:49:01+00:00,306.0397,8.3,12.65,47.84626,-54.09684
2020-06-16 07:59:01+00:00,308.018,8.3,12.65,47.84626,-54.09684
2020-06-16 08:09:01+00:00,309.0197,8.3,12.65,47.84626,-54.09684
2020-06-16 08:19:01+00:00,305.2463,8.3,12.65,47.84626,-54.09684
2020-06-16 08:29:01+00:00,301.6896,8.3,12.65,47.84626,-54.09684
2020-06-16 08:39:01+00:00,300.6663,8.3,12.65,47.84626,-54.09684
2020-06-16 08:49:01+00:00,301.8981,8.3,12.65,47.84626,-54.09684
2020-06-16 08:59:01+00:00,300.6547,8.3,12.65,47.84626,-54.09684
2020-06-16 09:09:01+00:00,296.9148,8.3,12.65,47.84626,-54.09684
2020-06-16 09:19:01+00:00,296.6929,8.35,12.65,47.84626,-54.09684
2020-06-16 09:29:01+00:00,294.5347,8.39,12.65,47.84626,-54.09684
2020-06-16 09:39:01+00:00,287.9797,8.52,12.65,47.84626,-54.09684
2020-06-16 09:49:01+00:00,282.4766,8.7,12.65,47.84626,-54.09684
2020-06-16 09:59:01+00:00,284.7231,8.7,12.65,47.84626,-54.09684
2020-06-16 10:09:01+00:00,281.8081,8.8,12.65,47.84626,-54.09684
2020-06-16 10:19:01+00:00,274.6647,9.0,12.73,47.84626,-54.09684
2020-06-16 10:29:01+00:00,270.3948,9.2,12.73,47.84626,-54.09684
2020-06-16 10:39:01+00:00,269.5414,9.2,12.73,47.84626,-54.09684
2020-06-16 10:49:01+00:00,262.6164,9.2,12.73,47.84626,-54.09684
2020-06-16 10:59:01+00:00,255.903,9.13,12.73,47.84626,-54.09684
2020-06-16 11:09:01+00:00,253.0947,9.09,12.73,47.84626,-54.09684
2020-06-16 11:19:01+00:00,250.1248,9.0,13.68,47.84626,-54.09684
2020-06-16 11:29:01+00:00,243.3281,9.02,13.68,47.84626,-54.09684
2020-06-16 11:39:01+00:00,237.7615,9.0,13.68,47.84626,-54.09684
2020-06-16 11:49:01+00:00,234.7831,8.9,13.68,47.84626,-54.09684
2020-06-16 11:59:01+00:00,229.2081,9.0,13.68,47.84626,-54.09684
2020-06-16 12:09:01+00:00,221.9231,9.09,13.68,47.84626,-54.09684
2020-06-16 12:19:01+00:00,219.7531,9.09,14.4,47.84626,-54.09684
2020-06-16 12:29:01+00:00,220.6181,9.15,14.4,47.84626,-54.09684
2020-06-16 12:39:01+00:00,215.1964,9.3,14.4,47.84626,-54.09684
2020-06-16 12:49:01+00:00,210.2397,9.4,14.4,47.84626,-54.09684
2020-06-16 12:59:01+00:00,213.5531,9.46,14.4,47.84626,-54.09684
2020-06-16 13:09:01+00:00,214.4148,9.52,14.4,47.84626,-54.09684
2020-06-16 13:19:01+00:00,209.1614,9.65,14.48,47.84626,-54.09684
2020-06-16 13:29:01+00:00,207.0532,9.7,14.48,47.84626,-54.09684
2020-06-16 13:39:01+00:00,208.8932,9.7,14.48,47.84626,-54.09684
2020-06-16 13:49:01+00:00,209.2781,9.7,14.48,47.84626,-54.09684
2020-06-16 13:59:01+00:00,207.1064,9.72,14.48,47.84626,-54.09684
2020-06-16 14:09:01+00:00,207.0165,9.7,14.48,47.84626,-54.09684
2020-06-16 14:19:01+00:00,208.1564,9.7,14.24,47.84626,-54.09684
2020-06-16 14:29:01+00:00,210.2931,9.7,14.24,47.84626,-54.09684
2020-06-16 14:39:01+00:00,211.3365,9.7,14.24,47.84626,-54.09684
2020-06-16 14:49:01+00:00,211.0081,9.69,14.24,47.84626,-54.09684
2020-06-16 14:59:01+00:00,211.3131,9.69,14.24,47.84626,-54.09684
2020-06-16 15:09:01+00:00,213.4731,9.67,14.24,47.84626,-54.09684
2020-06-16 15:19:01+00:00,213.6964,9.61,14.32,47.84626,-54.09684
2020-06-16 15:29:01+00:00,215.3081,9.6,14.32,47.84626,-54.09684
2020-06-16 15:39:01+00:00,220.6314,9.6,14.32,47.84626,-54.09684
2020-06-16 15:49:01+00:00,224.0248,9.64,14.32,47.84626,-54.09684
2020-06-16 15:59:01+00:00,225.3882,9.69,14.32,47.84626,-54.09684
2020-06-16 16:09:01+00:00,228.3148,9.7,14.32,47.84626,-54.09684
2020-06-16 16:19:01+00:00,232.8331,9.78,14.24,47.84626,-54.09684
2020-06-16 16:29:01+00:00,235.9981,9.8,14.24,47.84626,-54.09684
2020-06-16 16:39:01+00:00,238.7097,9.89,14.24,47.84626,-54.09684
2020-06-16 16:49:01+00:00,241.1981,9.8,14.24,47.84626,-54.09684
2020-06-16 16:59:01+00:00,244.8164,9.79,14.24,47.84626,-54.09684
2020-06-16 17:09:01+00:00,251.1115,9.7,14.24,47.84626,-54.09684
2020-06-16 17:19:01+00:00,257.3731,9.59,14.08,47.84626,-54.09684
2020-06-16 17:29:01+00:00,259.4148,9.56,14.08,47.84626,-54.09684
2020-06-16 17:39:01+00:00,259.5897,9.78,14.08,47.84626,-54.09684
2020-06-16 17:49:01+00:00,264.6931,9.9,14.08,47.84626,-54.09684
2020-06-16 17:59:01+00:00,270.7381,9.97,14.08,47.84626,-54.09684
2020-06-16 18:09:01+00:00,274.388,10.05,14.08,47.84626,-54.09684
2020-06-16 18:19:01+00:00,277.9847,10.3,13.84,47.84626,-54.09684
2020-06-16 18:29:01+00:00,284.9714,10.1,13.84,47.84626,-54.09684
2020-06-16 18:39:01+00:00,289.9447,10.05,13.84,47.84626,-54.09684
2020-06-16 18:49:01+00:00,292.2681,10.1,13.84,47.84626,-54.09684
2020-06-16 18:59:01+00:00,297.4664,10.1,13.84,47.84626,-54.09684
2020-06-16 19:09:01+00:00,302.5964,10.1,13.84,47.84626,-54.09684
2020-06-16 19:19:01+00:00,304.6113,10.08,13.84,47.84626,-54.09684
2020-06-16 19:29:01+00:00,306.0347,10.1,13.84,47.84626,-54.09684
2020-06-16 19:39:01+00:00,310.58799999999997,10.12,13.84,47.84626,-54.09684
2020-06-16 19:49:01+00:00,311.5797,10.24,13.84,47.84626,-54.09684
2020-06-16 19:59:01+00:00,310.968,10.39,13.84,47.84626,-54.09684
2020-06-16 20:09:01+00:00,313.973,10.5,13.84,47.84626,-54.09684
2020-06-16 20:19:01+00:00,317.5164,10.5,13.76,47.84626,-54.09684
2020-06-16 20:29:01+00:00,318.8413,10.54,13.76,47.84626,-54.09684
2020-06-16 20:39:01+00:00,321.233,10.6,13.76,47.84626,-54.09684
2020-06-16 20:49:01+00:00,324.3314,10.6,13.76,47.84626,-54.09684
2020-06-16 20:59:01+00:00,322.1697,10.6,13.76,47.84626,-54.09684
2020-06-16 21:09:01+00:00,320.8346,10.6,13.76,47.84626,-54.09684
2020-06-16 21:19:01+00:00,322.2864,10.61,13.76,47.84626,-54.09684
2020-06-16 21:29:01+00:00,319.9796,10.67,13.76,47.84626,-54.09684
2020-06-16 21:39:01+00:00,314.723,10.7,13.76,47.84626,-54.09684
2020-06-16 21:49:01+00:00,311.3064,10.7,13.76,47.84626,-54.09684
2020-06-16 21:59:01+00:00,312.738,10.69,13.76,47.84626,-54.09684
2020-06-16 22:09:01+00:00,311.4781,10.7,13.76,47.84626,-54.09684
2020-06-16 22:19:01+00:00,308.1664,10.8,13.6,47.84626,-54.09684
2020-06-16 22:29:01+00:00,304.568,10.89,13.6,47.84626,-54.09684
2020-06-16 22:39:01+00:00,301.6764,10.97,13.6,47.84626,-54.09684
2020-06-16 22:49:01+00:00,298.9381,11.27,13.6,47.84626,-54.09684
2020-06-16 22:59:01+00:00,292.753,11.66,13.6,47.84626,-54.09684
2020-06-16 23:09:01+00:00,285.2997,11.8,13.6,47.84626,-54.09684
2020-06-16 23:19:01+00:00,278.8214,11.9,13.37,47.84626,-54.09684
2020-06-16 23:29:01+00:00,276.9331,11.89,13.37,47.84626,-54.09684
2020-06-16 23:39:01+00:00,274.0131,11.8,13.37,47.84626,-54.09684
2020-06-16 23:49:01+00:00,266.1714,11.87,13.37,47.84626,-54.09684
2020-06-16 23:59:01+00:00,258.7148,11.9,13.37,47.84626,-54.09684
